[Date Prev][Date Next][Thread Prev][Thread Next] - [Date Index][Thread Index][Author Index]
2 Line ISS Keps 3-24
- Subject: [sarex] 2 Line ISS Keps 3-24
- From: "Dave Larsen Ph.D." <doc@xxxxxxxxxxx>
- Date: Sun, 23 Mar 2003 23:04:02 -0800
ISS
1 25544U 98067A 03083.17479975 .00010088 00000-0 13284-3 0 8114
2 25544 51.6349 87.2150 0008198 5.6009 85.6399 15.59091711247742
----
Via the sarex mailing list at AMSAT.ORG courtesy of AMSAT-NA.
To unsubscribe, send "unsubscribe sarex" to Majordomo@amsat.org
AMSAT Home